Home > Weather > Schwechat > Past weeks

Flag for Austria Past Weather in Schwechat, Lower Austria, Austria — Yesterday and Last 2 Weeks

Now
63 °F

Broken clouds.


Feels Like: 63 °F
Forecast: 61 / 77 °F
Wind: 17 mph from Northwest

Location: Vienna Schwechat-Flughafen Airport

Current Time: Jun 27, 2016 at 11:36:33 AM

Latest Report: Jun 27, 2016 at 10:50 AM


Visibility: N/A

Pressure: 30.07 "Hg

Humidity: 88%

Dew Point: 59 °F

Location of SchwechatLocation

Past Weather in Schwechat — Graph

°F

Schwechat Temperature Yesterday

Maximum temperature yesterday: 75 °F (at 1:50 PM)
Minimum temperature yesterday: 64 °F (at 4:20 AM)
Average temperature yesterday: 70 °F

High & Low Weather Summary for the Past Weeks

 TemperatureHumidityPressure
High90 °F (Jun 24, 3:20 PM)100% (Jun 13, 3:20 AM)30.30 "Hg (Jun 13, 3:20 AM)
Low52 °F (Jun 21, 4:20 AM)38% (Jun 23, 4:20 PM)29.50 "Hg (Jun 17, 3:50 AM)
Average68 °F73%29.93 "Hg
* Reported Jun 12 9:20 AM — Jun 27 9:50 AM, Schwechat, Weather by CustomWeather, © 2016

Note: Actual official high and low records may vary slightly from our data, if they occured in-between our weather recording intervals... More about our weather records

Advertising

Schwechat Weather History for the Previous 24 Hours

Scroll right to see more
 ConditionsComfort  
Time TempWeatherWind HumidityBarometerVisibility
9:50 AM
Mon, Jun 27
61 °FRain. Broken clouds.17 mph94%30.07 "HgN/A
9:20 AM61 °FLight rain. Broken clouds.16 mph94%30.07 "HgN/A
8:50 AM61 °FLight rain. Broken clouds.16 mph88%30.07 "HgN/A
8:20 AM61 °FRain. Broken clouds.16 mph94%30.07 "HgN/A
7:50 AM64 °FRain. Partly sunny.15 mph83%30.07 "HgN/A
7:20 AM64 °FBroken clouds.16 mph83%30.04 "HgN/A
6:50 AM64 °FBroken clouds.14 mph83%30.04 "HgN/A
6:20 AM64 °FPartly sunny.13 mph83%30.04 "HgN/A
5:50 AM63 °FPartly cloudy.10 mph88%30.04 "HgN/A
5:20 AM63 °FClear.13 mph88%30.01 "Hg10 mi
4:50 AM64 °FClear.14 mph83%30.01 "Hg10 mi
4:20 AM64 °FPartly cloudy.12 mph83%30.01 "HgN/A
3:50 AM64 °FClear.10 mph78%30.01 "Hg10 mi
3:20 AM64 °FPassing clouds.7 mph83%30.01 "HgN/A
2:50 AM66 °FPassing clouds.12 mph73%30.01 "HgN/A
2:20 AM66 °FPartly cloudy.10 mph78%30.04 "HgN/A
1:50 AM66 °FPassing clouds.8 mph78%30.04 "HgN/A
1:20 AM66 °FPassing clouds.8 mph78%30.01 "HgN/A
12:50 AM64 °FPassing clouds.9 mph83%30.01 "HgN/A
12:20 AM66 °FPassing clouds.9 mph83%30.04 "HgN/A
11:50 PM
Sun, Jun 26
64 °FClear.8 mph88%30.04 "Hg10 mi
11:20 PM64 °FClear.7 mph88%30.01 "Hg10 mi
10:50 PM66 °FClear.8 mph83%30.01 "Hg10 mi
10:20 PM66 °FClear.8 mph83%30.04 "Hg10 mi
9:50 PM68 °FSunny.7 mph78%30.04 "Hg10 mi
9:20 PM68 °FSunny.5 mph83%30.01 "Hg10 mi
8:50 PM68 °FLight rain. Partly sunny.6 mph83%30.01 "HgN/A
8:20 PM70 °FSunny.6 mph78%30.01 "Hg10 mi
7:50 PM72 °FPassing clouds.5 mph73%30.01 "HgN/A
7:20 PM72 °FSunny.7 mph73%29.98 "Hg10 mi
6:50 PM72 °FPartly sunny.8 mph73%29.98 "HgN/A
6:20 PM73 °FPartly sunny.5 mph74%30.01 "HgN/A
5:50 PM72 °FPartly sunny.8 mph73%30.01 "HgN/A
5:20 PM73 °FPartly sunny.8 mph69%30.01 "HgN/A
4:50 PM73 °FPartly sunny.12 mph69%30.01 "HgN/A
4:20 PM73 °FPartly sunny.10 mph65%30.01 "HgN/A
3:50 PM73 °FPartly sunny.12 mph65%30.01 "HgN/A
3:20 PM73 °FPartly sunny.10 mph69%30.01 "HgN/A
2:50 PM75 °FPartly sunny.13 mph65%30.01 "HgN/A
2:20 PM75 °FScattered clouds.14 mph65%30.01 "HgN/A
1:50 PM75 °FScattered clouds.14 mph65%30.04 "HgN/A
1:20 PM73 °FScattered clouds.10 mph69%30.04 "HgN/A
12:50 PM73 °FScattered clouds.13 mph65%30.04 "HgN/A
12:20 PM72 °FPartly sunny.12 mph69%30.04 "HgN/A
11:50 AM72 °FPartly sunny.12 mph69%30.04 "HgN/A
11:20 AM72 °FPartly sunny.15 mph65%30.04 "HgN/A
Weather by CustomWeather, © 2016

See weather overviewHow to use our weather pages